Flag Weather past 2 weeks in Tilburg, Netherlands

Now
46 °F

Fog.


Feels Like: 46 °F
Forecast: 42 / 52 °F
Wind: 2 mph from South

Location: Gilze-Rijen

Current Time: Nov 23, 2014 at 8:33:23 AM

Latest Report: Nov 23, 2014 at 7:55 AM


Visibility: 3 mi

Pressure: 30.04 "Hg

Humidity: 100%

Dew point: 46 °F

Location of TilburgLocation

Historic Weather in Tilburg — Graph

°F

Tilburg temperature yesterday

Maximum temperature yesterday: 57 °F (at 1:55 PM)
Minimum temperature yesterday: 39 °F (at 3:55 AM)
Average temperature yesterday: 47 °F

Past Weeks' High & Low Weather Summary

 TemperatureHumidityPressure
High57 °F (Nov 9, 2:25 PM)100% (Nov 9, 11:25 PM)30.33 "Hg (Nov 9, 11:25 PM)
Low36 °F (Nov 21, 2:55 AM)67% (Nov 9, 2:25 PM)29.50 "Hg (Nov 12, 3:25 AM)
Average47 °F91%29.82 "Hg
* Reported Nov 8 7:25 AM — Nov 23 7:25 AM, Tilburg, Weather by CustomWeather, © 2014

Note: Actual official high and low records may vary slightly from our data, if they occured in-between our weather recording intervals... More about our weather records

Advertising

Tilburg weather history for previous 24 hours

 ConditionsComfort  
Time TempWeatherWind HumidityBarometerVisibility
7:25 AM
Nov 23
46 °FFog.2 mph100%30.01 "Hg3 mi
7:04 AM46 °FFog.2 mph100%30.01 "Hg3 mi
6:55 AM48 °FFog.2 mph94%30.01 "Hg3 mi
6:25 AM48 °FFog.7 mph100%30.01 "Hg3 mi
6:03 AM48 °FFog.6 mph100%30.01 "Hg3 mi
5:55 AM48 °FFog.5 mph100%30.01 "Hg3 mi
5:25 AM48 °FFog.5 mph100%30.04 "Hg4 mi
4:55 AM50 °FFog.5 mph94%30.04 "Hg5 mi
4:25 AM50 °FFog.3 mph94%30.04 "Hg5 mi
3:55 AM48 °FFog.6 mph100%30.04 "Hg6 mi
3:25 AM50 °FFog.5 mph94%30.04 "Hg6 mi
2:55 AM50 °FPassing clouds.6 mph94%30.04 "HgN/A
2:25 AM50 °FOvercast.6 mph94%30.04 "HgN/A
1:55 AM50 °FMostly cloudy.6 mph94%30.04 "HgN/A
1:25 AM50 °FFog.8 mph94%30.04 "Hg6 mi
12:55 AM50 °FFog.7 mph94%30.04 "Hg6 mi
12:25 AM50 °FFog.5 mph94%30.04 "Hg6 mi
11:55 PM
Nov 22
50 °FOvercast.5 mph94%30.04 "HgN/A
11:25 PM50 °FMostly cloudy.6 mph94%30.04 "HgN/A
10:55 PM50 °FOvercast.5 mph94%30.04 "HgN/A
10:25 PM48 °FOvercast.5 mph100%30.04 "HgN/A
9:55 PM48 °FMostly cloudy.6 mph100%30.04 "HgN/A
9:25 PM50 °FOvercast.5 mph94%30.04 "HgN/A
8:55 PM50 °FOvercast.3 mph94%30.01 "HgN/A
8:25 PM48 °FOvercast.5 mph94%30.01 "HgN/A
7:55 PM48 °FFog.2 mph100%30.01 "Hg6 mi
7:25 PM50 °FFog.6 mph94%30.01 "Hg5 mi
6:55 PM50 °FFog.5 mph94%30.01 "Hg5 mi
6:25 PM50 °FCool.5 mph94%30.01 "HgN/A
5:55 PM52 °FPassing clouds.5 mph88%30.01 "HgN/A
5:25 PM52 °FPassing clouds.6 mph88%30.01 "HgN/A
4:55 PM54 °FCool.5 mph82%30.01 "HgN/A
4:25 PM54 °FPassing clouds.6 mph82%30.01 "HgN/A
3:55 PM55 °FOvercast.7 mph82%30.01 "HgN/A
3:25 PM57 °FPartly sunny.6 mph77%30.01 "HgN/A
2:55 PM57 °FOvercast.9 mph72%30.01 "HgN/A
2:25 PM57 °FCool.8 mph72%30.01 "HgN/A
1:55 PM57 °FPassing clouds.10 mph72%30.01 "HgN/A
1:25 PM55 °FCool.8 mph77%30.01 "HgN/A
12:55 PM55 °FPartly sunny.10 mph77%30.01 "HgN/A
12:25 PM54 °FOvercast.9 mph77%30.01 "HgN/A
11:55 AM52 °FOvercast.9 mph82%30.04 "HgN/A
11:25 AM50 °FPartly sunny.9 mph82%30.04 "HgN/A
10:55 AM48 °FPassing clouds.9 mph82%30.04 "HgN/A
10:25 AM45 °FFog.8 mph93%30.01 "Hg5 mi
9:55 AM43 °FFog.8 mph93%30.01 "Hg4 mi
9:25 AM43 °FFog.6 mph93%30.04 "Hg4 mi
8:55 AM43 °FFog.7 mph93%30.01 "Hg4 mi
8:25 AM41 °FFog.7 mph93%30.04 "Hg4 mi
Weather by CustomWeather, © 2014

See weather overviewHow to use our weather pages